Weather observations for the past three days for
Williamsport - Lycoming County Airport
Imperial (Metric)
Date Time (edt) Wind (mph) Vis. (mi.) Weather Sky Cond. Temperature (ºF) Relative Humidity Wind Chill (°F) Heat Index (°F) Pressure Precipitation (in)
Air Dwpt 6 hour altimeter (in) sea level (mb) 1 hr 3 hr 6 hr
Max. Min.
24 02:54 W 8 10.00 Fair CLR 70 64 82% 29.64 1003.1
24 01:54 W 8 10.00 Fair CLR 71.1 68 81 71.1 90% 29.63 1002.7 0.15
24 00:54 W 7 10.00 Fair CLR 72 69.1 91% 29.61 1002.3
23 23:54 W 9 10.00 A Few Clouds FEW085 73 70 90% 29.62 1002.5
23 22:54 NW 7 10.00 Overcast FEW041 BKN080 OVC090 73.9 71.1 91% 29.62 1002.4 0.15
23 21:54 W 6 10.00 Mostly Cloudy FEW049 BKN110 73.9 70 88% 29.6 1001.9 0.15
23 20:54 W 8 10.00 Partly Cloudy FEW040 SCT050 80.1 69.1 69% 83 29.59 1001.5
23 19:54 W 17 G 25 10.00 Mostly Cloudy FEW039 SCT048 BKN065 81 69.1 91.9 81 67% 84 29.59 1001.6
23 18:54 SW 13 G 24 10.00 Mostly Cloudy FEW049 SCT080 BKN100 82.9 69.1 63% 87 29.58 1001.1
23 17:54 SW 25 G 43 10.00 A Few Clouds and Breezy FEW075 FEW095 84.9 68 57% 88 29.59 1001.5
23 16:54 SW 18 G 28 10.00 Partly Cloudy FEW055 SCT080 90 68 48% 94 29.58 1001.2
23 15:54 W 12 10.00 Mostly Cloudy SCT065 BKN085 87.1 68 53% 91 29.61 1002.2
23 14:54 W 18 G 28 10.00 Mostly Cloudy BKN090 89.1 64.9 45% 91 29.62 1002.4
23 13:54 SW 17 G 26 10.00 A Few Clouds FEW070 91.9 66.9 91.9 75 44% 95 29.63 1002.8
23 12:54 S 8 10.00 Fair CLR 87.1 72 61% 94 29.65 1003.5
23 11:54 S 8 10.00 A Few Clouds FEW120 84.9 71.1 63% 90 29.68 1004.5
23 10:54 S 5 10.00 Partly Cloudy SCT110 82.9 71.1 67% 88 29.7 1005.1
23 09:54 E 5 10.00 A Few Clouds FEW120 82 73 74% 87 29.71 1005.5
23 08:54 Calm 8.00 A Few Clouds FEW120 75.9 71.1 85% 76 29.74 1006.6
23 07:54 Calm 7.00 Mostly Cloudy BKN007 75 71.1 75 72 88% 75 29.76 1007.3
23 06:54 Calm 7.00 Mostly Cloudy BKN006 73 70 90% 29.77 1007.7
23 05:54 Calm 7.00 Mostly Cloudy BKN007 72 70 94% 29.78 1007.8
23 04:54 Calm 8.00 Mostly Cloudy BKN120 72 70 94% 29.79 1008.3
23 03:54 Calm 9.00 Fair CLR 73 70 90% 29.8 1008.6
23 02:54 Calm 10.00 Fair CLR 73 70 90% 29.82 1009.3
23 01:54 SE 3 10.00 Mostly Cloudy SCT080 BKN120 73 70 77 73 90% 29.85 1010.1
23 00:54 E 6 10.00 Mostly Cloudy BKN100 73 70 90% 29.86 1010.8
22 23:54 Calm 10.00 Fair CLR 73.9 70 88% 29.87 1010.8
22 22:54 Calm 10.00 Fair CLR 73.9 70 88% 29.88 1011.5
22 21:54 N 3 10.00 Fair CLR 73.9 70 88% 29.9 1012.1
22 20:54 N 5 10.00 A Few Clouds FEW080 FEW095 75 70 84% 75 29.9 1012.2
22 19:54 SE 5 10.00 A Few Clouds FEW085 77 70 96.1 75.9 79% 79 29.89 1012.0 0.01
22 18:54 Vrbl 5 10.00 Partly Cloudy FEW070 SCT110 77 70 79% 79 29.91 1012.5 0.01
22 17:54 S 12 G 29 10.00 Thunderstorm BKN070 BKN085 84 66.9 57% 87 29.88 1011.2
22 16:54 Vrbl 7 10.00 Fair CLR 96.1 66.9 39% 100 29.88 1011.4
22 15:54 W 10 10.00 Fair CLR 95 68 41% 100 29.91 1012.2
22 14:54 W 9 10.00 Fair CLR 95 68 41% 100 29.93 1012.9
22 13:54 W 9 10.00 Fair CLR 93.9 68 95 73 43% 98 29.94 1013.3
22 12:54 W 5 10.00 Fair CLR 91.9 71.1 51% 99 29.98 1014.7
22 11:54 Calm 10.00 Fair CLR 88 73.9 63% 97 30.01 1015.5
22 10:54 SW 5 10.00 Fair CLR 84 72 67% 90 30.03 1016.4
22 09:54 Calm 10.00 Partly Cloudy SCT009 80.1 72 76% 84 30.04 1017.0
22 08:54 NW 3 8.00 Overcast OVC006 75 71.1 88% 75 30.06 1017.7
22 07:54 Calm 7.00 Overcast OVC006 73 70 73 70 90% 30.07 1017.8
22 06:54 W 3 6.00 Fog/Mist OVC004 72 70 94% 30.07 1017.7
22 05:54 Calm 3.00 Fog/Mist OVC003 71.1 69.1 94% 30.08 1018.0
22 04:54 Calm 6.00 Fog/Mist OVC004 71.1 69.1 94% 30.07 1017.8
22 03:54 Calm 10.00 Overcast OVC006 71.1 69.1 94% 30.07 1017.7
22 02:54 NE 3 10.00 A Few Clouds FEW004 72 69.1 91% 30.08 1018.1
22 01:54 Calm 10.00 Fair CLR 72 69.1 84.9 72 91% 30.09 1018.5 0.47
22 00:54 E 3 10.00 Fair CLR 73 71.1 94% 30.1 1018.8
21 23:54 E 3 9.00 Fair CLR 73 71.1 94% 30.1 1018.9
21 22:54 Calm 10.00 A Few Clouds FEW065 75 71.1 88% 75 30.11 1019.1 0.47
21 21:54 E 5 10.00 Fair CLR 73.9 71.1 91% 30.11 1019.1
21 20:54 SE 9 10.00 Thunderstorm in Vicinity SCT034 BKN110 75 71.1 88% 75 30.09 1018.6 0.47
21 19:54 Vrbl 5 10.00 Thunderstorm BKN065 BKN080 OVC100 86 69.1 98.1 84.9 57% 90 30.07 1017.6
21 18:54 N 14 G 22 10.00 Mostly Cloudy BKN070 93.9 66.9 41% 98 30.04 1016.8
21 17:54 Calm 10.00 Partly Cloudy SCT080 95 66 39% 98 30.04 1016.8
21 16:54 W 9 10.00 Partly Cloudy FEW070 SCT090 96.1 66 37% 100 30.06 1017.4
21 15:54 SW 8 10.00 Fair CLR 97 66 36% 101 30.07 1017.8
21 14:54 W 10 10.00 Fair CLR 96.1 66 37% 100 30.09 1018.4
21 13:54 W 7 10.00 A Few Clouds FEW055 FEW085 93.9 69.1 93.9 75 44% 99 30.12 1019.3
21 12:54 Calm 10.00 Fair CLR 91 70 50% 97 30.14 1020.2
21 11:54 Vrbl 3 10.00 Fair CLR 90 71.1 54% 96 30.17 1021.2
21 10:54 Vrbl 5 10.00 Fair CLR 87.1 70 57% 92 30.18 1021.5
21 09:54 Vrbl 3 10.00 Fair CLR 82.9 70 65% 87 30.2 1022.0
21 08:54 Vrbl 3 10.00 Fair CLR 79 69.1 72% 82 30.21 1022.5
21 07:54 Vrbl 3 10.00 Fair CLR 75 68 75 69.1 79% 76 30.22 1023.0
21 06:54 N 3 10.00 Fair CLR 72 66.9 84% 30.22 1022.8
21 05:54 Calm 10.00 Fair CLR 70 66 87% 30.21 1022.4
21 04:54 Calm 10.00 Fair CLR 71.1 66.9 87% 30.21 1022.4
21 03:54 Calm 10.00 Fair CLR 71.1 66.9 87% 30.21 1022.4
Date Time (edt) Wind (mph) Vis. (mi.) Weather Sky Cond. Air Dwpt Max. Min. Relative Humidity Wind Chill (°F) Heat Index (°F) altimeter (in) sea level (mb) 1 hr 3 hr 6 hr
6 hour
Temperature (ºF) Pressure Precipitation (in)